Location: Asarope
(8.2500°N, 4.4833°E)
Time: 13:49:10
(UTC+00:00)

Cosmos 1782 - Pass Details

Date: 07 June 2020
Orbit: 535 x 553 km, 82.5° (Epoch: 07 July)

Event Time Altitude Azimuth Distance (km) Brightness Sun altitude
Rises 04:34:39 0° 339° (NNW) 2,689 6.4 -11.8°
Reaches altitude 10° 04:37:00 10° 327° (NNW) 1,795 5.4 -11.3°
Maximum altitude 04:40:25 28° 267° (W) 1,021 3.7 -10.5°
Drops below altitude 10° 04:43:49 10° 207° (SSW) 1,790 5.0 -9.8°
Enters shadow 04:45:34 - 198° (SSW) 2,443 5.7 -9.4°
